Andravida, Greece

3:02 AM EET on February 20, 2017 (GMT +0200)
Andravida Air Base

Weather History for LGAD - May, 2013

Change the Weather History Date:

Saturday, May 11, 2013

  Actual Average Record
Temperature  
Mean Temperature 68 °F -  
Max Temperature 78 °F 77 °F 86 °F (2003)
Min Temperature 59 °F 57 °F 50 °F (1997)
Cooling Degree Days 4    
Growing Degree Days 18 (Base 50)    
Moisture  
Dew Point 58 °F    
Average Humidity 67    
Maximum Humidity 88    
Minimum Humidity 38    
Precipitation  
Precipitation 0.00 in - - ()
Sea Level Pressure  
Sea Level Pressure 29.86 in    
Wind  
Wind Speed 2 mph ()    
Max Wind Speed 10 mph    
Max Gust Speed -    
Visibility 6.2 miles    
Events      
Averages and records for this station are not official NWS values.
T = Trace of Precipitation, MM = Missing Value Source: Averaged Metar Reports

Daily Weather History Graph

Daily Weather History Graph

Search for Another Location

Airport or City:

Trip Planner

Search our weather history database for the weather conditions in past years. The results will help you decide how hot, cold, wet, or windy it might be!

Date:

Astronomy

May. 11, 2013 Rise Set
Actual Time 6:28 AM EEST 8:34 PM EEST
Civil Twilight 5:59 AM EEST 9:03 PM EEST
Nautical Twilight 5:23 AM EEST 9:39 PM EEST
Astronomical Twilight 4:45 AM EEST 10:18 PM EEST
Moon 7:22 AM EEST (5/11) 9:59 PM EEST (5/11)
Length of Visible Light 15h 04m
Length of Day
14h 06m
New Moon, 2% of the Moon is Illuminated
May 11
New Moon
May 18
First Quarter
May 25
Full
May 31
Last Quarter
Jun 8
New

Hourly Weather History & Observations

Time (EEST) Temp. Dew Point Humidity Pressure Visibility Wind Dir Wind Speed Gust Speed Precip Events Conditions
1:50 AM 62.6 °F 57.2 °F 82% 29.92 in 6.2 mi Calm Calm - N/A   Scattered Clouds
2:50 AM 60.8 °F 57.2 °F 88% 29.89 in 6.2 mi Calm Calm - N/A   Scattered Clouds
3:00 AM 61 °F 56 °F 80% 29.91 in 6 mi Calm Calm - -   Scattered Clouds
4:20 AM 59.0 °F 55.4 °F 88% 29.89 in 6.2 mi Calm Calm - N/A   Scattered Clouds
5:50 AM 59.0 °F 55.4 °F 88% 29.86 in 6.2 mi Calm Calm - N/A   Partly Cloudy
6:20 AM 59.0 °F 55.4 °F 88% 29.86 in 6.2 mi Calm Calm - N/A   Partly Cloudy
7:20 AM 60.8 °F 57.2 °F 88% 29.86 in 6.2 mi Calm Calm - N/A   Partly Cloudy
7:50 AM 60.8 °F 57.2 °F 88% 29.89 in 6.2 mi Calm Calm - N/A   Partly Cloudy
8:20 AM 60.8 °F 57.2 °F 88% 29.89 in 6.2 mi Calm Calm - N/A   Partly Cloudy
8:50 AM 68.0 °F 60.8 °F 78% 29.89 in 6.2 mi Calm Calm - N/A   Partly Cloudy
9:00 AM 68 °F 60 °F 69% 29.90 in 6 mi Calm Calm - -   Scattered Clouds
9:20 AM 71.6 °F 60.8 °F 69% 29.89 in 6.2 mi Calm Calm - N/A   Partly Cloudy
9:50 AM 71.6 °F 60.8 °F 69% 29.89 in 6.2 mi North 4.6 mph - N/A   Scattered Clouds
10:20 AM 71.6 °F 59.0 °F 64% 29.89 in 6.2 mi North 4.6 mph - N/A   Scattered Clouds
10:50 AM 73.4 °F 59.0 °F 61% 29.86 in 6.2 mi Calm Calm - N/A   Scattered Clouds
11:20 AM 75.2 °F 59.0 °F 57% 29.86 in 6.2 mi Calm Calm - N/A   Scattered Clouds
11:50 AM 75.2 °F 55.4 °F 50% 29.86 in 6.2 mi Calm Calm - N/A   Scattered Clouds
12:20 PM 77.0 °F 55.4 °F 47% 29.86 in 6.2 mi WNW 5.8 mph - N/A   Scattered Clouds
12:50 PM 77.0 °F 55.4 °F 47% 29.89 in 6.2 mi NW 6.9 mph - N/A   Scattered Clouds
1:20 PM 77.0 °F 55.4 °F 47% 29.89 in 6.2 mi WNW 8.1 mph - N/A   Scattered Clouds
1:50 PM 77.0 °F 57.2 °F 50% 29.86 in 6.2 mi WNW 8.1 mph - N/A   Partly Cloudy
2:20 PM 78.8 °F 59.0 °F 51% 29.86 in 6.2 mi WNW 8.1 mph - N/A   Partly Cloudy
2:50 PM 78.8 °F 57.2 °F 47% 29.83 in 6.2 mi WNW 9.2 mph - N/A   Scattered Clouds
3:00 PM 78 °F 57 °F 38% 29.85 in 6 mi WNW 9.2 mph - -   Partly Cloudy
3:20 PM 77.0 °F 57.2 °F 50% 29.83 in 6.2 mi West 10.4 mph - N/A   Scattered Clouds
3:50 PM 77.0 °F 57.2 °F 50% 29.83 in 6.2 mi West 10.4 mph - N/A   Scattered Clouds
4:20 PM 77.0 °F 57.2 °F 50% 29.83 in 6.2 mi WNW 6.9 mph - N/A   Scattered Clouds
4:50 PM 77.0 °F 53.6 °F 44% 29.83 in 6.2 mi WNW 10.4 mph - N/A   Scattered Clouds
5:20 PM 75.2 °F 55.4 °F 50% 29.83 in 6.2 mi West 9.2 mph - N/A   Scattered Clouds
5:50 PM 73.4 °F 57.2 °F 57% 29.83 in 6.2 mi WNW 9.2 mph - N/A   Partly Cloudy
6:20 PM 73.4 °F 59.0 °F 61% 29.83 in 6.2 mi WNW 9.2 mph - N/A   Partly Cloudy
6:50 PM 71.6 °F 59.0 °F 64% 29.83 in 6.2 mi West 10.4 mph - N/A   Partly Cloudy
7:20 PM 71.6 °F 59.0 °F 64% 29.83 in 6.2 mi West 6.9 mph - N/A   Partly Cloudy
7:50 PM 69.8 °F 59.0 °F 68% 29.83 in 6.2 mi Calm Calm - N/A   Scattered Clouds
8:20 PM 68.0 °F 59.0 °F 73% 29.83 in 6.2 mi Calm Calm - N/A   Scattered Clouds
8:50 PM 68.0 °F 59.0 °F 73% 29.83 in 6.2 mi Calm Calm - N/A   Scattered Clouds
9:00 PM 68 °F 59 °F 64% 29.84 in 6 mi Calm Calm - -   Scattered Clouds
9:20 PM 68.0 °F 59.0 °F 73% 29.83 in 6.2 mi Calm Calm - N/A   Scattered Clouds
9:50 PM 66.2 °F 59.0 °F 78% 29.83 in 6.2 mi Calm Calm - N/A   Scattered Clouds
10:20 PM 66.2 °F 59.0 °F 78% 29.83 in 6.2 mi Calm Calm - N/A   Scattered Clouds
10:50 PM 64.4 °F 59.0 °F 83% 29.83 in 6.2 mi Calm Calm - N/A   Scattered Clouds
11:20 PM 64.4 °F 59.0 °F 83% 29.83 in 6.2 mi Calm Calm - N/A   Scattered Clouds
11:50 PM 64.4 °F 59.0 °F 83% 29.83 in 6.2 mi SE 4.6 mph - N/A   Partly Cloudy